カタログに戻る

CS1

運用中通信SSO
NORAD 49261·PAYLOAD·🇺🇸 United States

打ち上げ Sep 27, 2021 から Vandenberg Space Force Base

Loading…

次のパス (今後24時間)

TLE

最新Source: Space-Track

元期: Sep 14, 2026, 09:39 UTC

1 49261U 21088B   26257.40248436  .00011985  00000-0  33302-3 0  9992
2 49261  97.3665 320.7865 0012779 117.4287 242.8259 15.36938966274110

AllMySatでCS1をリアルタイム追跡

Download on the App Store